[[{"header":{"parameterUnit":"m.s-1","parameterCategory":1,"la1":30.2991,"la2":30.254,"lo1":-89.0895,"lo2":-89.0444,"dy":0.0017,"dx":0.0017,"nx":28,"ny":28,"refTime":"2025-03-15T03:00:00:Z","depth":0,"parameterNumber":2,"parameterNumberName":"U-component_of_WINDS"},"data":[0,0,0,0,0,0,0,0,0,0,0,0,0,0,0,0,0,0,0,0,0,0,0,0,0,0,0,0,0,0,0,0,0,0,0,0,0,0,0,0,0,0,0,0,0,0,0,0,0,0,0,0,0,0,0,0,0,0,2.4968,2.4967,0,2.4907,2.4907,2.4906,2.4801,2.4799,2.4797,2.4795,2.4735,2.4735,2.4735,0,0,0,0,0,0,0,0,0,0,0,0,0,2.4996,2.4996,2.4968,2.4967,2.4967,2.4907,2.4906,2.4906,2.4801,2.4799,2.4797,2.4794,2.4735,2.4735,2.4736,0,0,0,0,0,0,0,0,0,0,0,0,0,2.4965,2.4996,2.4968,2.4907,2.4901,2.4907,2.4906,2.4905,2.4802,2.4799,2.4796,2.4793,2.4735,2.4735,2.4736,2.4797,0,0,2.4737,2.4737,0,0,0,0,0,0,0,0,2.4967,2.4964,2.4917,2.4912,2.4905,2.4859,2.4894,2.4869,2.4803,2.484,2.4795,2.4792,2.4779,2.4775,2.477,2.4794,2.4791,2.4737,2.4737,2.4737,2.4737,0,0,0,0,0,0,0,2.4969,2.4966,2.4944,2.4916,2.4909,2.4884,2.4876,2.4889,2.4827,2.4836,2.4829,2.4823,2.4775,2.477,2.4768,2.4791,2.4737,2.4737,2.4737,2.4737,2.4862,2.4865,0,0,0,0,0,0,2.498,2.4968,2.4946,2.4942,2.4929,2.4886,2.4877,2.4876,2.4826,2.4816,2.4825,2.4818,2.4771,2.4768,2.4766,2.4834,2.4737,2.4737,2.4738,2.4859,2.4862,2.4866,0,0,0,0,0,0,2.4981,2.4979,2.4948,2.4953,2.4947,2.4888,2.4889,2.4877,2.4872,2.4818,2.4806,2.4832,2.4769,2.4765,2.479,2.483,2.4737,2.4738,2.4855,2.486,2.4864,2.4972,0,0,0,0,0,0,2.4982,2.498,2.5002,2.4954,2.4947,2.4973,2.4891,2.4878,2.4873,2.4863,2.4821,2.4811,2.4766,2.479,2.479,2.4829,2.4738,2.4851,2.4857,2.4863,2.4964,2.4979,2.4992,0,0,0,0,0,2.4983,2.5035,2.5003,2.5001,2.4974,2.4976,2.4972,2.4918,2.4877,2.4899,2.4864,2.4813,2.4826,2.4793,2.4793,2.4833,2.4848,2.4855,2.4862,2.4958,2.4976,2.4992,0,0,0,0,0,0,2.5089,2.5027,2.4992,2.5029,2.5009,2.4958,2.4984,2.4939,2.493,2.4921,2.4856,2.4847,2.4881,2.4859,2.4823,2.4889,2.4829,2.4836,2.4902,2.4919,2.4933,2.4937,2.4738,0,0,0,0,0,2.5117,2.5123,2.5069,2.5107,2.5099,2.5044,2.5042,2.5003,2.4979,2.497,2.4936,2.4916,2.4915,2.4916,2.4912,2.4961,2.495,2.4988,2.5002,2.5014,2.5021,2.5045,2.5061,2.4889,2.4888,2.4888,0,0,2.5174,2.5141,2.5149,2.5128,2.5107,2.5115,2.5037,2.5049,2.5055,2.4971,2.4992,2.4968,2.494,2.4977,2.4991,2.496,2.5066,2.5023,2.5033,2.5033,2.5054,2.507,2.5085,2.4893,2.4892,2.4892,0,0,2.5282,2.5258,2.5287,2.5268,2.5237,2.52,2.5208,2.5164,2.5144,2.5164,2.5102,2.5109,2.5109,2.5092,2.5083,2.5186,2.5139,2.5187,2.5261,2.5285,2.5299,2.531,2.5347,2.5361,2.5194,2.5195,2.5195,0,2.5357,2.5367,2.5308,2.5324,2.5317,2.5242,2.5271,2.5256,2.5226,2.5223,2.5188,2.5187,2.5164,2.5195,2.5221,2.5216,2.5223,2.5191,2.5301,2.5312,2.5323,2.5357,2.5371,2.5201,2.52,2.5199,2.5199,0,2.5461,2.5468,2.5496,2.5468,2.5464,2.5487,2.5433,2.5436,2.5397,2.5365,2.5386,2.5355,2.5344,2.5349,2.5312,2.5376,2.5357,2.5313,2.5251,2.5346,2.5377,2.539,2.5209,2.5207,2.5205,2.5204,0,0,2.5633,2.5573,2.5584,2.5571,2.5532,2.5537,2.5557,2.5546,2.555,2.5532,2.5548,2.555,2.5509,2.5499,2.546,2.5481,2.5565,2.5434,2.5432,2.5459,2.5634,2.5668,2.5684,2.5534,2.5536,2.5538,2.5636,0,2.5732,2.5762,2.5711,2.5753,2.5759,2.5689,2.5706,2.5685,2.5655,2.5657,2.5625,2.5627,2.5573,2.5567,2.5585,2.5551,2.5599,2.5543,2.5548,2.5549,2.5556,2.57,2.5735,2.5829,2.5648,2.565,2.5652,0,2.5852,2.584,2.5883,2.5842,2.5843,2.586,2.5845,2.5848,2.5823,2.58,2.579,2.5742,2.576,2.5701,2.5724,2.5687,2.5686,2.567,2.5673,2.5671,2.5606,2.5702,2.5858,2.5872,2.567,2.5669,2.5668,0,2.5973,2.5968,2.5993,2.5984,2.5937,2.595,2.5931,2.5903,2.59,2.5888,2.5885,2.5876,2.5871,2.5865,2.5817,2.5778,2.5846,2.5783,2.5828,2.5829,2.5845,2.5844,2.6003,2.5846,2.5845,2.5845,2.5845,0,2.609,2.6118,2.6046,2.6062,2.6092,2.6034,2.6066,2.604,2.6016,2.6025,2.5964,2.5975,2.5911,2.5915,2.5878,2.5903,2.5901,2.5883,2.5873,2.5888,2.5891,2.5886,2.5878,2.5849,2.5848,2.5847,2.5847,0,2.6229,2.6182,2.6204,2.6158,2.6147,2.6172,2.6133,2.6146,2.6112,2.6125,2.6125,2.6073,2.6075,2.6027,2.6018,2.5993,2.6035,2.6013,2.6043,2.6036,2.6084,2.608,2.6245,2.6264,2.6095,2.6096,2.6098,0,2.6306,2.6326,2.6283,2.6284,2.6269,2.6272,2.6269,2.6212,2.6211,2.6185,2.6201,2.6197,2.6191,2.6197,2.6159,2.6153,2.613,2.6188,2.6129,2.6144,2.6131,2.613,2.6132,2.6201,2.6203,2.6205,2.6206,0,2.6447,2.6423,2.642,2.6409,2.6407,2.6396,2.638,2.6386,2.6324,2.6326,2.6327,2.6322,2.6314,2.6312,2.6298,2.6279,2.6233,2.6226,2.6235,2.6251,2.6268,2.6259,2.6077,2.6222,2.622,2.6219,2.6218,2.6218,2.6557,2.6572,2.6544,2.6543,2.6526,2.6513,2.6523,2.6491,2.6491,2.6479,2.6446,2.6453,2.6428,2.6405,2.6391,2.6395,2.6366,2.6381,2.6384,2.6389,2.6398,2.6268,2.6393,2.6392,2.6392,2.6391,2.6391,0,2.6695,2.6673,2.6673,2.6654,2.6653,2.661,2.6591,2.6594,2.66,2.658,2.6576,2.6577,2.6575,2.6537,2.653,2.6541,2.652,2.6542,2.654,2.6536,2.6424,2.6416,2.6559,2.6559,2.6559,2.6559,2.6559,2.6559,2.6766,2.6789,2.6762,2.6777,2.6755,2.6761,2.6754,2.6743,2.6727,2.6731,2.6729,2.6704,2.6678,2.6669,2.6665,2.6654,2.6654,2.6683,2.6665,2.656,2.6544,2.6529,2.6521,2.6683,2.6684,2.6776,2.6777,2.6778]},{"header":{"parameterUnit":"m.s-1","parameterCategory":1,"la1":30.2991,"la2":30.254,"lo1":-89.0895,"lo2":-89.0444,"dy":0.0017,"dx":0.0017,"nx":28,"ny":28,"refTime":"2025-03-15T03:00:00:Z","depth":0,"parameterNumber":3,"parameterNumberName":"V-component_of_WINDS"},"data":[0,0,0,0,0,0,0,0,0,0,0,0,0,0,0,0,0,0,0,0,0,0,0,0,0,0,0,0,0,0,0,0,0,0,0,0,0,0,0,0,0,0,0,0,0,0,0,0,0,0,0,0,0,0,0,0,0,0,7.3227,7.3231,0,7.3615,7.3619,7.3624,7.3734,7.3732,7.373,7.3728,7.4136,7.4149,7.4162,0,0,0,0,0,0,0,0,0,0,0,0,0,7.2594,7.2605,7.3227,7.3232,7.3237,7.3614,7.362,7.3625,7.3735,7.3732,7.3729,7.3727,7.4132,7.4147,7.4163,0,0,0,0,0,0,0,0,0,0,0,0,0,7.2915,7.2609,7.3226,7.3337,7.335,7.3613,7.362,7.3626,7.3735,7.3732,7.3729,7.3726,7.4127,7.4146,7.4165,7.4349,0,0,7.4224,7.4232,0,0,0,0,0,0,0,0,7.2896,7.2938,7.3316,7.3329,7.3345,7.3623,7.3547,7.3869,7.3736,7.3589,7.3728,7.3724,7.3969,7.4001,7.4081,7.4368,7.4386,7.4226,7.4237,7.4246,7.4251,0,0,0,0,0,0,0,7.2874,7.2922,7.3381,7.3321,7.3339,7.3371,7.3413,7.3608,7.3793,7.3602,7.3611,7.3655,7.3976,7.4062,7.4092,7.4392,7.4225,7.4242,7.4254,7.4262,7.4855,7.4859,0,0,0,0,0,0,7.2831,7.2902,7.3369,7.3392,7.3108,7.3385,7.3432,7.3537,7.3791,7.3826,7.3657,7.3658,7.4031,7.4069,7.4106,7.4342,7.4245,7.4264,7.4275,7.4851,7.4856,7.4861,0,0,0,0,0,0,7.2817,7.2872,7.3353,7.315,7.3214,7.3399,7.3517,7.3547,7.3632,7.3832,7.3867,7.371,7.403,7.4079,7.4288,7.4358,7.4272,7.429,7.4846,7.4853,7.4858,7.4812,0,0,0,0,0,0,7.2798,7.2866,7.2934,7.3151,7.3224,7.3524,7.3521,7.3556,7.3664,7.3669,7.3891,7.3925,7.4031,7.4259,7.4307,7.4383,7.4305,7.4841,7.4849,7.4856,7.4809,7.4816,7.4823,0,0,0,0,0,7.2775,7.2907,7.2937,7.2993,7.3313,7.3528,7.357,7.3686,7.3669,7.3742,7.3871,7.3918,7.4341,7.4279,7.4335,7.4417,7.4837,7.4847,7.4856,7.4805,7.4815,7.4823,0,0,0,0,0,0,7.2698,7.2938,7.2973,7.3178,7.3331,7.3546,7.3641,7.3692,7.3856,7.3854,7.3995,7.4044,7.4244,7.4352,7.4278,7.4612,7.4591,7.4612,7.4534,7.4544,7.4551,7.4522,7.4321,0,0,0,0,0,7.2703,7.2854,7.3057,7.3219,7.3293,7.3453,7.3551,7.3627,7.3793,7.386,7.4004,7.4167,7.4337,7.4447,7.4614,7.4824,7.4877,7.4909,7.4916,7.4921,7.4938,7.5062,7.508,7.4891,7.4891,7.4891,0,0,7.2719,7.2869,7.2955,7.3207,7.3334,7.3492,7.3508,7.3672,7.3792,7.3886,7.4092,7.4204,7.4396,7.4607,7.4707,7.4703,7.5002,7.4933,7.4935,7.495,7.5074,7.5091,7.5107,7.4898,7.4897,7.4896,0,0,7.2827,7.2953,7.3103,7.3231,7.3423,7.3529,7.3565,7.3773,7.385,7.4058,7.4134,7.428,7.4569,7.4703,7.4809,7.4972,7.5023,7.5023,7.5061,7.518,7.5195,7.5209,7.5271,7.5291,7.5039,7.5039,7.5039,0,7.2823,7.3058,7.3175,7.3337,7.3447,7.3537,7.3693,7.3813,7.4051,7.4127,7.4118,7.4485,7.462,7.4866,7.4905,7.4987,7.5037,7.4999,7.5182,7.5198,7.5213,7.5273,7.5296,7.5038,7.5038,7.5038,7.5038,0,7.3045,7.3208,7.3307,7.3532,7.3654,7.3811,7.3957,7.4067,7.4134,7.4242,7.4456,7.4621,7.4825,7.4889,7.4956,7.5147,7.5139,7.5154,7.5137,7.5228,7.5287,7.5311,7.5036,7.5037,7.5037,7.5037,0,0,7.3115,7.3403,7.3438,7.3543,7.3762,7.3893,7.4057,7.4254,7.4348,7.451,7.4655,7.4898,7.4915,7.5035,7.5119,7.5223,7.5346,7.5228,7.5234,7.5247,7.5572,7.556,7.5585,7.5381,7.5386,7.539,7.5557,0,7.3253,7.3545,7.3657,7.3898,7.4053,7.4142,7.4286,7.4439,7.4546,7.4697,7.4817,7.4988,7.4995,7.5069,7.5176,7.5308,7.5414,7.5298,7.5522,7.5528,7.5473,7.5615,7.5603,7.5753,7.5581,7.5585,7.5588,0,7.3453,7.3614,7.3869,7.4073,7.4143,7.4269,7.4461,7.4602,7.478,7.4851,7.4986,7.5063,7.5245,7.5214,7.5469,7.5387,7.5486,7.5566,7.5575,7.5602,7.5564,7.565,7.5803,7.5827,7.5625,7.5622,7.5619,0,7.3481,7.3763,7.3954,7.404,7.4282,7.437,7.4475,7.4649,7.4762,7.4931,7.5006,7.5195,7.5299,7.5446,7.5575,7.554,7.5819,7.5799,7.5888,7.5884,7.5944,7.5939,7.6118,7.6002,7.6002,7.6002,7.6001,0,7.3625,7.3779,7.397,7.4087,7.4264,7.4393,7.4566,7.4678,7.4833,7.4978,7.5067,7.5202,7.5362,7.552,7.5622,7.582,7.5866,7.5932,7.5958,7.5926,7.5917,7.5994,7.5988,7.6008,7.6006,7.6005,7.6004,0,7.3687,7.382,7.4034,7.4246,7.4303,7.4424,7.4608,7.4728,7.4839,7.5021,7.5072,7.5248,7.5438,7.558,7.5827,7.5896,7.6108,7.6133,7.6046,7.606,7.6142,7.6134,7.6379,7.642,7.6273,7.6274,7.6275,0,7.377,7.3891,7.4115,7.4216,7.432,7.4483,7.4598,7.4731,7.4848,7.5062,7.5157,7.5352,7.5516,7.5816,7.597,7.616,7.6193,7.6266,7.6223,7.6188,7.6199,7.6191,7.6206,7.6273,7.6273,7.6274,7.6275,0,7.3906,7.3967,7.4126,7.4311,7.4445,7.4597,7.4752,7.4831,7.4994,7.5121,7.5315,7.5441,7.5693,7.5888,7.6094,7.6209,7.6272,7.6287,7.6319,7.6288,7.6234,7.6268,7.6066,7.6281,7.6281,7.628,7.628,7.628,7.3984,7.4097,7.4272,7.4449,7.4578,7.4721,7.4845,7.4972,7.5134,7.5347,7.5417,7.5618,7.5799,7.6082,7.6199,7.6362,7.6363,7.6407,7.6419,7.6428,7.6427,7.6205,7.64,7.64,7.64,7.64,7.64,0,7.4127,7.4245,7.4405,7.4618,7.4758,7.48,7.4975,7.509,7.5265,7.5426,7.5584,7.581,7.6,7.6168,7.6368,7.6466,7.65,7.6515,7.651,7.6537,7.6414,7.6368,7.6484,7.6484,7.6484,7.6484,7.6484,7.6484,7.4218,7.4411,7.4493,7.4754,7.4872,7.5067,7.5164,7.5298,7.5428,7.5673,7.5831,7.5938,7.6104,7.6317,7.6495,7.6541,7.6612,7.6619,7.6672,7.6555,7.6545,7.6535,7.6493,7.6633,7.6633,7.6782,7.6783,7.6784]}]]